Location: Ann Marie Estates
(40.9541°N, 81.4318°W)
Time: 00:28:31
(UTC+00:00)

Daily predictions for brighter satellites

Satellite Brightness Start Highest point End
(mag) Time Altitude Azimuth Time Altitude Azimuth Time Altitude Azimuth
Cosmos 1975 Rocket 3.5 00:00:43 10° N 00:04:47 39° ENE 00:08:49 10° SSE
Cosmos 2084 Rocket 3.9 00:01:01 10° NNW 00:05:21 49° NE 00:09:45 10° SE
Cosmos 1743 4.2 00:02:00 10° SSW 00:05:39 43° W 00:09:20 10° N
USA 234 4.1 00:01:38 10° ENE 00:07:03 27° SE 00:12:26 10° S
COSMO-SKYMED 1 4.1 00:03:55 10° N 00:08:02 42° WNW 00:12:07 10° SW
Cosmos 1707 4.0 00:05:14 10° NNE 00:08:10 21° ENE 00:11:05 10° SE
Abrixas rocket 3.8 00:10:49 10° WNW 00:13:14 24° NNW 00:15:38 10° NE
ISS -3.6 00:13:43 10° SW 00:16:59 52° SE 00:20:13 10° ENE
Sich 1 Rocket 3.9 00:13:07 10° SSE 00:17:22 46° E 00:21:42 10° NNE
H-2A R/B 2.0 00:16:19 10° SSE 00:21:10 61° ENE 00:26:08 10° N
ARGOS 3.3 00:19:52 10° SE 00:25:01 51° ENE 00:30:13 10° N
Iridium 4 Rocket 3.8 00:20:21 10° S 00:25:07 69° W 00:30:25 10° N
Cosmos 1437 2.4 00:24:56 10° N 00:27:56 88° ENE 00:30:55 10° S
SJ 16-02 3.9 00:27:26 10° WSW 00:31:02 25° WNW 00:34:40 10° N
CZ-2C R/B 3.3 00:26:11 10° NNE 00:31:12 34° E 00:36:15 10° SSE
SL-08 RB Rocket 4.2 00:27:09 10° SE 00:31:24 39° ENE 00:35:38 10° N
Milstar 3 Cent rocket 4.0 00:31:46 10° SSW 00:35:00 14° S 00:37:15 11° SE
Lacrosse 5 rocket 4.1 00:33:26 10° NW 00:35:57 15° NNW 00:38:30 10° NNE
NOSS 2-2 (E) 3.3 00:33:38 10° SW 00:37:05 69° NW 00:40:52 10° NNE
Okean 2 Rocket 3.3 00:32:51 10° SSE 00:37:10 47° E 00:41:28 10° NNE
Cosmos 2263 Rocket 3.1 00:36:08 10° SW 00:41:31 50° WNW 00:46:57 10° NNE
ATLAS 2AS CENTAUR R/B 4.2 00:36:45 10° SE 00:46:15 11° ENE 00:46:49 10° ENE
USA 102 4.4 00:37:50 17° SSE 00:42:01 77° ENE 00:46:52 10° NNW
HJ-1C 3.7 00:39:10 10° S 00:42:24 64° W 00:45:41 10° NNW
SJ-11-01 4.5 00:38:08 10° S 00:42:51 75° WSW 00:47:34 10° NNW
DELTA 2 R/B (1) 3.9 00:37:56 10° W 00:43:21 56° SSW 00:46:52 22° SE
NOSS 2-2 (D) 3.2 00:42:07 10° SW 00:45:36 74° NW 00:49:20 10° NNE
CZ-2C R/B 3.7 00:40:48 10° S 00:45:53 61° W 00:51:18 10° NNW
Cosmos 1844 Rocket 3.1 00:43:35 10° S 00:48:40 38° ESE 00:53:47 10° NE
Cosmos 1300 Rocket 3.5 00:44:52 10° S 00:49:12 63° E 00:53:34 10° NNE
Ariane Rocket 3.1 00:50:37 18° SE 00:54:13 56° ENE 00:59:12 10° N
Cosmos 1513 Rocket 4.4 00:48:09 10° S 00:54:26 81° E 01:00:40 10° N
USA 186 1.6 00:54:52 49° SE 00:55:26 61° ENE 00:58:35 10° N
CENTAUR R/B 4.0 00:48:31 10° NNW 00:55:41 34° NE 01:00:05 22° E
Cosmos 1943 3.8 00:54:28 10° NNW 00:59:59 56° WSW 01:05:30 10° S
IRS-1A Rocket 4.4 00:55:24 15° SSE 01:00:21 66° ENE 01:06:10 10° N
Exosat Rocket 4.0 00:55:29 10° S 01:01:00 39° ESE 01:05:42 10° NE
Cosmos 1464 Rocket 3.9 00:56:40 10° S 01:02:47 90° ENE 01:08:58 10° N
Cosmos 2298 Rocket 3.9 00:58:37 10° S 01:03:54 69° ESE 01:09:13 10° NNE
Meteor 1-15 Rocket 4.4 00:58:42 10° SSE 01:04:00 46° E 01:09:24 10° NNE
USA 238 DEB 4.3 00:57:44 10° NNW 01:04:38 46° NE 01:07:59 29° E
USA 238 4.3 00:57:50 10° NNW 01:04:44 45° NE 01:08:04 29° E
Meteor 1-12 Rocket 4.3 00:58:53 10° S 01:04:50 88° W 01:10:43 10° N
SPOT 3 Rocket 4.2 01:05:38 32° E 01:06:20 33° ENE 01:10:55 10° N
FREGAT/IRIS 4.3 01:09:18 21° N 01:09:18 21° N 01:10:22 10° N
Cosmos 1536 Rocket 3.6 01:04:31 10° N 01:08:55 57° E 01:09:59 44° SE
MetOp-A 4.1 01:07:54 29° SE 01:10:35 63° ENE 01:15:53 10° N
OBJECT-B 2.6 01:14:10 21° NNE 01:14:10 21° NNE 01:15:34 10° N
CZ-4 R/B 4.5 01:10:12 10° SW 01:12:41 15° W 01:15:11 10° NW
Cosmos 1092 Rocket 4.4 01:07:10 10° N 01:12:56 41° ENE 01:14:15 36° ESE
Cosmos 2151 Rocket 3.5 01:13:57 10° S 01:18:24 85° W 01:22:54 10° N
Cosmos 1867 3.6 01:13:34 10° NW 01:19:02 80° WSW 01:21:23 35° SSE
Cosmos 1025 Rocket 3.1 01:17:26 10° N 01:21:50 75° W 01:23:50 31° S
CZ-2C R/B 2.5 01:19:59 10° WSW 01:22:04 25° SSW 01:22:04 25° SSW
Cosmos 1674 3.6 01:26:26 10° N 01:29:01 38° NNE 01:29:01 38° NNE
DMSP B5D2-2 4.1 01:26:23 10° N 01:31:42 80° WNW 01:36:58 10° SSW
NOSS 3-2 (A) 4.1 01:25:24 10° NNW 01:33:02 71° NE 01:36:11 42° SE
Cosmos 2150 Rocket 4.3 01:28:37 10° SSW 01:33:56 71° WNW 01:39:23 10° NNE
Meteor 2-5 Rocket 3.9 01:32:41 10° N 01:38:03 52° ENE 01:38:03 52° ENE
BREEZE-M DEB (TANK) 3.4 01:36:07 10° WNW 01:39:50 84° SSW 01:42:23 45° SE
Cosmos 1125 Rocket 3.5 01:38:45 10° SSW 01:44:03 86° WNW 01:49:25 10° NNE
SJ-6B 3.7 01:44:19 41° WSW 01:44:28 42° W 01:48:02 10° NNW
Resurs 01 Rocket 2.6 01:49:34 37° NNE 01:49:34 37° NNE 01:52:26 10° N
USA 234 3.2 01:43:53 10° NE 01:50:27 81° NW 01:57:00 10° SW
Cosmos 2082 Rocket 4.4 01:50:30 10° NNE 01:52:04 12° NE 01:52:04 12° NE
ISS -1.4 01:51:06 10° W 01:53:13 23° NW 01:53:13 23° NW
Meteor 1-24 Rocket 4.1 01:58:42 10° N 02:02:58 51° NNE 02:02:58 51° NNE
NOSS 3-2 (C) 4.0 01:59:41 10° NNW 02:07:21 74° NE 02:08:32 65° ESE
CZ-2C R/B 4.3 02:06:31 10° N 02:11:23 33° WNW 02:16:18 10° SW
ATLAS 2AS CENTAUR R/B 3.1 02:23:50 10° SSW 02:33:18 63° NE 02:39:44 10° NE
Cosmos 1844 Rocket 4.4 02:27:43 10° WSW 02:32:36 31° WNW 02:37:31 10° N
Cosmos 1634 Rocket 4.4 02:32:52 55° W 02:33:18 56° W 02:39:23 10° N
CENTAUR R/B 3.2 02:38:55 10° NW 02:47:11 75° WSW 02:47:17 75° SW
ATLAS 3B R/B 3.6 02:46:46 10° NNW 02:51:46 42° N 02:51:46 42° N
Cosmos 1833 Rocket 4.4 02:51:54 10° NNW 02:54:32 28° N 02:54:32 28° N
Cosmos 2082 Rocket 4.5 03:32:22 10° NNW 03:33:54 19° NNW 03:33:54 19° NNW
Resurs 1-4 Rocket 4.5 07:17:56 10° N 07:19:11 18° N 07:19:11 18° N
Cosmos 1697 Rocket 4.3 07:37:49 30° ENE 07:37:49 30° ENE 07:41:01 10° NE
Cosmos 1980 Rocket 4.1 07:40:43 23° E 07:40:43 23° E 07:44:36 10° NE
USA 267 3.4 07:58:26 10° NE 08:04:18 67° N 08:04:18 67° N
Lacrosse 5 3.2 08:09:35 37° NE 08:09:35 37° NE 08:12:40 10° NE
Cosmos 1821 Rocket 4.2 08:03:48 10° N 08:10:05 65° E 08:10:11 65° E
ADEOS II 3.5 08:19:25 10° N 08:22:10 29° NNW 08:22:10 29° NNW
Nadezhda 3 Rocket 3.9 08:32:55 74° NW 08:32:55 74° NW 08:38:40 10° N
Cosmos 2278 3.7 08:34:00 74° ESE 08:34:04 74° ESE 08:39:48 10° NNE
X-37B 3.7 08:38:14 16° ENE 08:38:14 16° ENE 08:39:03 10° ENE
IDEFIX/ARIANE 42P 2.6 08:31:49 10° NNE 08:36:52 79° ENE 08:36:52 79° ENE
USA 234 3.5 08:31:59 10° ESE 08:38:26 65° NE 08:44:53 10° NW
MSX 4.2 08:34:15 10° NNE 08:39:59 61° ESE 08:41:47 42° SSE
Cosmos 2369 3.8 08:42:33 62° NW 08:42:33 62° NW 08:47:48 10° NNE
ARIANE 5 R/B 2.9 08:39:11 10° N 08:43:10 51° NNW 08:43:10 51° NNW
CZ-3B R/B 3.8 08:44:40 22° N 08:44:40 22° N 08:49:18 10° NE
Cosmos 389 Rocket 4.5 08:47:50 26° NNE 08:47:50 26° NNE 08:49:32 10° NNE
USA 305 4.1 08:47:19 37° N 08:47:19 37° N 08:50:21 10° NE
CZ-2D R/B 4.5 08:47:05 10° NNW 08:47:18 10° NW 08:47:18 10° NW
USA 306 4.0 08:51:15 38° N 08:51:15 38° N 08:54:25 10° NE
CZ-2D R/B 4.4 08:52:33 10° N 08:55:21 39° NNW 08:55:21 39° NNW
ERS-2 4.4 08:53:53 10° SE 08:56:54 25° ENE 08:59:57 10° NNE
SJ 16-02 3.3 08:55:35 10° N 08:59:28 29° ENE 09:03:19 10° SE
H-2A R/B 2.6 08:58:57 10° SSE 09:03:12 60° ENE 09:07:34 10° N
Cosmos 2360 4.5 09:06:43 47° WNW 09:07:06 47° WNW 09:12:39 10° NNE
Cosmos 192 4.2 09:11:15 61° SW 09:12:03 77° WNW 09:16:59 10° NNE
Helios 1B 4.4 09:12:02 48° S 09:13:13 80° WSW 09:17:34 10° NNW
Meteor 1-26 Rocket 4.4 09:13:42 46° W 09:13:51 46° WNW 09:19:03 10° N
Cosmos 1812 3.2 09:12:51 36° SSE 09:14:10 58° E 09:17:58 10° NNE
ASTEX 1 3.6 09:09:27 10° N 09:14:18 50° W 09:14:18 50° W
BREEZE-M DEB (TANK) 3.0 09:17:25 50° NNW 09:17:25 50° NNW 09:22:25 10° ENE
USA 307 4.0 09:17:10 31° NW 09:17:24 31° NNW 09:21:14 10° NE
CZ-2C R/B 2.9 09:12:43 10° NNE 09:17:49 62° E 09:22:56 10° S
BREEZE-M DEB (TANK) 3.6 09:13:55 31° SW 09:17:58 66° SSE 09:21:37 10° ENE
COSMOS 2441 4.3 09:14:24 10° N 09:19:17 67° WNW 09:20:38 45° SW
Cosmos 1697 Rocket 3.6 09:19:34 29° WNW 09:19:50 29° NW 09:24:42 10° N
SL-8 R/B 4.4 09:17:58 25° NW 09:20:25 49° NNE 09:25:03 10° E
USA 308 4.0 09:20:08 30° NW 09:20:31 30° NNW 09:24:19 10° NE
ERBS 2.6 09:21:44 59° SE 09:21:47 59° SE 09:25:06 10° NE
SL-4 R/B 3.8 09:19:51 20° S 09:22:03 29° SE 09:26:09 10° ENE
Cosmos 1500 3.3 09:18:23 10° N 09:22:14 74° E 09:26:02 10° SSE
PAYLOAD A 3.8 09:18:51 10° NNE 09:23:34 80° ESE 09:26:52 20° S
Cosmos 1980 Rocket 2.5 09:22:31 41° W 09:23:50 48° WNW 09:29:20 10° NNE
CZ-4B R/B 3.7 09:24:04 10° SE 09:26:41 25° ENE 09:29:22 10° NNE
Cosmos 1339 Rocket 4.4 09:22:54 18° SSW 09:27:41 72° W 09:33:55 10° N
Cosmos 1666 4.3 09:24:29 10° N 09:28:03 36° ENE 09:31:33 10° SE
BREEZE M DEB (TANK) 3.9 09:13:38 10° WNW 09:28:41 80° NNE 09:32:53 10° ESE
Cosmos 468 Rocket 4.5 09:24:08 11° S 09:29:09 61° ESE 09:34:22 10° NNE
Landsat 5 3.5 09:24:41 10° S 09:29:10 69° WSW 09:33:41 10° NNW
Cosmos 2322 Rocket 3.3 09:24:06 10° S 09:29:26 44° ESE 09:34:48 10° NE
Cosmos 1782 4.3 09:32:44 22° NW 09:32:44 22° NW 09:34:55 10° NNW
Meteor 1-10 Rocket 4.3 09:25:52 10° S 09:31:36 85° E 09:37:29 10° N
USA 276 4.3 09:31:03 17° NNW 09:31:39 17° N 09:33:54 10° NE
Cosmos 2263 Rocket 2.4 09:29:17 10° NNW 09:34:57 74° ENE 09:40:37 10° SSE
SL-16 R/B 2.6 09:31:37 10° S 09:37:12 64° ESE 09:42:49 10° NNE
Meteor 1-14 Rocket 4.5 09:35:01 10° NNW 09:40:17 43° W 09:45:29 10° SSW
CZ-2C R/B 3.7 09:37:09 10° N 09:40:05 29° WNW 09:40:05 29° WNW
Cosmos 546 4.4 09:39:33 35° WNW 09:41:04 78° SW 09:44:54 10° SE
Cosmos 2227 4.1 09:41:15 10° NNW 09:46:56 84° WSW 09:52:32 10° SSE
USA 267 4.5 09:41:49 10° NE 09:47:16 29° NNW 09:51:38 15° WNW
NOSS 3-3 (A) 4.0 09:45:01 25° WSW 09:48:21 61° NW 09:54:45 10° NNE
NOSS 3-3 (C) 3.9 09:45:10 25° WSW 09:48:30 61° NW 09:54:49 10° NNE
deb Chang Zheng 4 4.0 09:44:53 10° NNE 09:49:10 63° ESE 09:53:23 10° S
Cosmos 1238 Rocket 4.4 09:43:15 10° NNW 09:49:19 40° W 09:54:54 10° SSW
Lacrosse 5 3.4 09:48:47 17° WNW 09:51:06 23° NNW 09:55:10 10° NNE
Meteor 2-6 Rocket 4.4 09:48:56 14° SSW 09:53:31 51° WNW 09:59:09 10° N
IRIDIUM 104 4.3 09:50:19 10° N 09:55:27 60° W 10:00:34 10° SSW
Cosmos 1707 Rocket 3.4 09:52:07 10° S 09:56:26 87° W 10:00:48 10° N
CZ-4C R/B 4.3 09:57:19 24° WNW 09:57:19 24° WNW 09:59:37 10° NW
Cosmos 921 Rocket 3.5 09:55:09 26° WSW 09:56:46 36° WNW 10:00:40 10° N
Meteor 1-5 Rocket 4.1 09:52:32 10° NNW 09:57:44 57° W 10:03:00 10° S
Cosmos 1898 Rocket 3.7 09:52:33 10° NNW 09:57:49 75° ENE 10:03:06 10° SSE
Cosmos 44 4.2 09:58:36 22° W 10:00:20 28° NW 10:04:20 10° NNE
Cosmos 2228 Rocket 4.1 10:01:20 22° WSW 10:02:45 26° WNW 10:06:27 10° NNW
SAR-Lupe-1 4.3 10:01:32 10° SSE 10:05:04 70° ENE 10:08:38 10° N
ATLAS 2AS CENTAUR R/B 4.1 09:58:34 10° NNW 10:05:39 42° NE 10:12:09 10° ESE
USA 32 4.0 10:03:49 10° N 10:09:04 71° W 10:14:15 10° S
Cosmos 1689 Rocket 3.8 10:07:53 10° SE 10:10:38 36° ENE 10:13:24 10° N
Meteor 1-4 Rocket 3.2 10:09:31 17° SW 10:11:40 32° WNW 10:14:52 10° N
ADEOS 3.5 10:07:10 10° N 10:12:24 76° WNW 10:17:36 10° SSW
X-37B 1.5 10:10:31 14° WNW 10:13:00 44° N 10:16:04 10° E
Cosmos 2173 Rocket 4.2 10:08:02 10° N 10:14:24 84° E 10:20:46 10° S
Cosmos 1536 2.8 10:11:46 10° N 10:15:51 79° W 10:19:54 10° S
IDEFIX/ARIANE 42P 4.3 10:13:25 10° NNW 10:15:59 14° WNW 10:17:40 12° W
Cosmos 1733 Rocket 3.2 10:13:18 10° N 10:17:40 79° E 10:21:59 10° S
Cosmos 1484 Rocket 2.8 10:15:07 10° N 10:19:06 75° WNW 10:23:05 10° SSW
ADEOS Rocket 3.3 10:13:39 10° S 10:20:32 57° W 10:26:46 10° NNW
USA 234 3.8 10:15:44 10° SSE 10:21:38 36° SW 10:27:35 10° WNW
Cosmos 1869 Rocket 4.4 10:18:59 10° NNW 10:22:37 27° W 10:26:14 10° SSW
ALOS 2.2 10:18:07 10° N 10:22:48 78° WNW 10:27:27 10° SSW
Meteor 1-11 Rocket 3.9 10:19:08 10° NNW 10:24:44 53° W 10:30:11 10° S
Cosmos 1937 Rocket 3.4 10:21:19 10° NNW 10:26:29 84° WSW 10:31:36 10° SSE
Meteor 1-31 Rocket 2.7 10:26:08 10° N 10:29:56 68° WNW 10:33:45 10° SSW
Cosmos 1862 Rocket 3.5 10:25:53 10° S 10:30:17 78° W 10:34:41 10° N
Cosmos 1814 Rocket 4.2 10:25:08 10° SSW 10:30:18 76° ESE 10:35:34 10° NNE
ERS-2 3.4 10:27:39 10° SW 10:30:24 20° W 10:33:11 10° NW
Cosmos 1437 Rocket 3.4 10:28:08 10° S 10:31:51 59° E 10:35:36 10° NNE
FALCON 9 DEB 3.1 10:31:20 10° WSW 10:34:44 71° NW 10:38:10 10° NE
Cosmos 841 Rocket 3.5 10:30:17 10° SSW 10:35:29 77° WNW 10:40:46 10° NNE
Meteor 1-27 Rocket 4.2 10:30:13 10° SSW 10:35:53 46° WNW 10:41:34 10° N
SJ 16-02 2.4 10:34:22 10° NW 10:37:53 24° W 10:41:23 10° SSW
Meteor PRIRODA 3.9 10:35:46 10° NNE 10:39:26 73° ESE 10:43:03 10° S
H-2A R/B 3.9 10:37:49 10° WSW 10:39:34 12° W 10:41:19 10° WNW
Cosmos 2016 Rocket 4.0 10:38:26 10° N 10:44:35 85° W 10:50:40 10° S
Cosmos 1763 Rocket 4.3 10:41:19 10° SW 10:46:04 33° WNW 10:50:50 10° N
